Weather Roundup
Issued by NWS Chicago, IL

Home | Current Version | Previous Version | Graphics & Text | Print | Product List | Glossary On
Versions: 1 2 3 4 5 6 7 8 9 10 11 12 13 14 15 16 17 18 19 20 21 22 23 24 25 26 27 28 29 30 31 32 33 34 35 36 37 38 39 40 41 42 43 44 45 46 47 48 49 50
000
NZUS59 KLOT 261012
HRRLOT

CHICAGO AREA WEATHER ROUNDUP
NATIONAL WEATHER SERVICE CHICAGO/ROMEOVILLE IL
400 AM CST SUN FEB 26 2017

NOTE: "FAIR" INDICATES FEW OR NO CLOUDS BELOW 12,000 FEET WITH NO
SIGNIFICANT WEATHER AND/OR OBSTRUCTIONS TO VISIBILITY.

* THESE STATIONS ARE NOT UNDER NWS QUALITY CONTROL. THEY ALSO MAY NOT
  REPORT WEATHER SUCH AS PRECIPITATION OR FOG.

ILZ005-006-012>014-019>023-261100-
NORTHEAST ILLINOIS

CITY           SKY/WX    TMP DP  RH WIND       PRES   REMARKS
OHARE          CLOUDY    25  19  78 S5        30.01F WCI  19
MIDWAY         CLOUDY    25  17  72 SE9       30.03F WCI  15
AURORA         MOCLDY    24  19  81 S8        30.02F WCI  15
LANSING*       CLOUDY    22  20  93 S6        30.06F WCI  15
JOLIET*        CLEAR     25  21  85 SE5       30.05S WCI  19
WAUKEGAN       CLOUDY    23  18  81 S6        30.00F WCI  16
DUPAGE AIRPORT CLOUDY    22  17  81 S6        30.00F WCI  14
WHEELING       CLOUDY    24  17  74 S7        30.02F WCI  16
KANKAKEE*      PTCLDY    21  18  85 CALM      30.09R
MORRIS*        CLEAR     23  19  87 S5        30.04R WCI  17
LEWIS AIRPORT* MOCLDY    22  20  92 S8        30.03F WCI  13
NORTHERLY ISL    N/A     26  18  71 S6          N/A  WCI  20
$$

WIZ051-052-058>065-066-070>072-261100-
SOUTHEAST WISCONSIN

CITY           SKY/WX    TMP DP  RH WIND       PRES   REMARKS
MILWAUKEE      CLOUDY    24  15  68 S6        29.97F WCI  17
KENOSHA*       CLOUDY    24  17  74 SW7       30.00S WCI  16
RACINE*        CLOUDY    23  16  74 SW7       30.01S WCI  15
WAUKESHA       CLOUDY    19  14  79 S3        29.96F
WEST BEND      MOCLDY    21  18  86 SW3       29.94F
$$

INZ001>003-010>013-019-020-261100-
NORTHWEST INDIANA

CITY           SKY/WX    TMP DP  RH WIND       PRES   REMARKS
GARY*          NOT AVBL
MICHIGAN CITY* NOT AVBL
RENSSELAER*    NOT AVBL
VALPARAISO     MOCLDY    20  16  84 S5        30.07S WCI  13
$$

LMZ740>746-261100-
SOUTHERN LAKE MICHIGAN

STATION/POSITION TIME  SKY/WX   TEMP WIND        PRES    VSBY
                                AIR  DIR/SP/G
                 (UTC)          (F)  (DEG/KT/KT) (MB)    (MI)
HARRISON CRIB    0940            28  190/ 11/ 12   N/A
BURNHAM HARBOR   1000            25  160/  5/  7   N/A
CALUMET HARBOR   0948            25  180/  4/  6 1017.2F
BURNS HARBOR     0940            23  180/  8/ 11 1018.6S
MICHIGAN CITY    0940            24  170/  9/ 11   N/A
$$

ABBREVIATIONS USED IN REMARKS
   TC - TEMPERATURE IN CELSIUS
  WCI - WIND CHILL INDEX
   HX - HEAT INDEX
  VSB - VISIBILITY
$$




USA.gov is the U.S. government's official web portal to all federal, state and local government web resources and services.